DLH357 EDDF-EDDM

Flight info

Callsign DLH357
Flight time 0h 38m
Altitude 23000
Route CINDY8S/18 CINDY Z74 HAREM T104 ROKIL ROKIL1B
Aircraft A359/H-SDE2E3GHIJ3J4J5LM1ORWXY/LB1D1

Departure

Time 2026-05-07 18:55
Airport Frankfurt Main Airport (EDDF)

Arrival

Time 2026-05-07 19:33
Airport Munich Airport (EDDM)
Time Latitude Longitude Altitude Speed Heading
2026-05-07 18:13 50.04542 8.56747 362 ft 0 kts 295°
2026-05-07 18:42 50.04542 8.56748 362 ft 4 kts 295°
2026-05-07 18:43 50.04531 8.56785 366 ft 6 kts 294°
2026-05-07 18:43 50.04523 8.56824 368 ft 5 kts 274°
2026-05-07 18:43 50.04526 8.56864 365 ft 4 kts 239°
2026-05-07 18:43 50.04542 8.56888 366 ft 2 kts 194°
2026-05-07 18:44 50.04538 8.56882 367 ft 0 kts 193°
2026-05-07 18:49 50.04522 8.56876 371 ft 6 kts 192°
2026-05-07 18:49 50.04441 8.56852 371 ft 18 kts 189°
2026-05-07 18:49 50.04301 8.56812 369 ft 22 kts 201°
2026-05-07 18:49 50.04208 8.56612 367 ft 26 kts 248°
2026-05-07 18:50 50.04141 8.56334 368 ft 29 kts 250°
2026-05-07 18:50 50.04065 8.56026 364 ft 32 kts 248°
2026-05-07 18:50 50.03984 8.55692 357 ft 34 kts 251°
2026-05-07 18:50 50.03901 8.55335 365 ft 36 kts 249°
2026-05-07 18:51 50.03812 8.54963 359 ft 38 kts 250°
2026-05-07 18:51 50.03718 8.54569 360 ft 40 kts 250°
2026-05-07 18:51 50.03617 8.54148 356 ft 42 kts 251°
2026-05-07 18:51 50.03514 8.53723 356 ft 43 kts 250°
2026-05-07 18:52 50.03412 8.53289 349 ft 41 kts 250°
2026-05-07 18:52 50.03310 8.52865 347 ft 42 kts 250°
2026-05-07 18:52 50.03268 8.52686 339 ft 0 kts 250°
2026-05-07 18:52 50.03264 8.52670 347 ft 6 kts 250°
2026-05-07 18:53 50.03228 8.52602 349 ft 12 kts 206°
2026-05-07 18:53 50.03188 8.52597 347 ft 0 kts 182°
2026-05-07 18:54 50.03187 8.52596 347 ft 3 kts 182°
2026-05-07 18:54 50.03062 8.52597 342 ft 45 kts 179°
2026-05-07 18:54 50.02477 8.52605 342 ft 121 kts 180°
2026-05-07 18:55 50.01435 8.52616 347 ft 181 kts 181°
2026-05-07 18:55 50.00192 8.52600 1231 ft 170 kts 179°
2026-05-07 18:55 49.99014 8.52585 2081 ft 175 kts 179°
2026-05-07 18:55 49.97691 8.52657 2406 ft 206 kts 173°
2026-05-07 18:56 49.96347 8.53630 2864 ft 224 kts 133°
2026-05-07 18:56 49.95457 8.55647 3536 ft 231 kts 117°
2026-05-07 18:56 49.94690 8.57853 3917 ft 233 kts 116°
2026-05-07 18:56 49.94110 8.60187 4021 ft 233 kts 99°
2026-05-07 18:57 49.93927 8.62795 4200 ft 255 kts 91°
2026-05-07 18:57 49.93838 8.65624 4927 ft 266 kts 91°
2026-05-07 18:57 49.93547 8.68480 5850 ft 272 kts 108°
2026-05-07 18:57 49.92515 8.70890 6770 ft 277 kts 138°
2026-05-07 18:58 49.90985 8.72728 7719 ft 280 kts 145°
2026-05-07 18:58 49.89428 8.74428 8695 ft 284 kts 144°
2026-05-07 18:58 49.88050 8.76640 9712 ft 289 kts 124°
2026-05-07 18:58 49.86997 8.79319 10486 ft 298 kts 120°
2026-05-07 18:59 49.85954 8.82247 10919 ft 324 kts 119°
2026-05-07 18:59 49.84820 8.85440 11036 ft 349 kts 120°
2026-05-07 18:59 49.83726 8.88481 11053 ft 357 kts 120°
2026-05-07 18:59 49.82541 8.91759 11070 ft 358 kts 120°
2026-05-07 19:00 49.81322 8.95120 11067 ft 358 kts 120°
2026-05-07 19:00 49.80069 8.98451 11068 ft 358 kts 124°
2026-05-07 19:00 49.78625 9.01591 11067 ft 358 kts 127°
2026-05-07 19:00 49.77154 9.04608 11068 ft 358 kts 128°
2026-05-07 19:01 49.75614 9.07660 11066 ft 358 kts 129°
2026-05-07 19:01 49.74106 9.10588 11065 ft 358 kts 129°
2026-05-07 19:01 49.72540 9.13600 11260 ft 363 kts 129°
2026-05-07 19:01 49.70945 9.16657 12123 ft 365 kts 129°
2026-05-07 19:02 49.69350 9.19715 13185 ft 366 kts 129°
2026-05-07 19:02 49.67743 9.22798 14093 ft 371 kts 129°
2026-05-07 19:02 49.66117 9.25920 14900 ft 376 kts 129°
2026-05-07 19:02 49.64572 9.28886 15623 ft 381 kts 129°
2026-05-07 19:03 49.62905 9.32089 16415 ft 385 kts 130°
2026-05-07 19:03 49.61211 9.35339 17208 ft 391 kts 130°
2026-05-07 19:03 49.59524 9.38573 17986 ft 396 kts 130°
2026-05-07 19:03 49.57786 9.41900 18749 ft 401 kts 130°
2026-05-07 19:04 49.56027 9.45262 19509 ft 405 kts 130°
2026-05-07 19:04 49.54251 9.48652 20237 ft 410 kts 130°
2026-05-07 19:04 49.52448 9.52088 20961 ft 415 kts 130°
2026-05-07 19:04 49.50622 9.55566 21728 ft 419 kts 130°
2026-05-07 19:05 49.48782 9.59065 22449 ft 423 kts 130°
2026-05-07 19:05 49.46929 9.62583 22920 ft 425 kts 130°
2026-05-07 19:05 49.45057 9.66133 23055 ft 429 kts 130°
2026-05-07 19:05 49.43200 9.69650 23054 ft 430 kts 130°
2026-05-07 19:06 49.41307 9.73229 23053 ft 431 kts 130°
2026-05-07 19:06 49.37689 9.80060 23049 ft 431 kts 130°
2026-05-07 19:06 49.35676 9.83851 23051 ft 431 kts 130°
2026-05-07 19:07 49.33785 9.87409 23046 ft 432 kts 130°
2026-05-07 19:07 49.31901 9.90948 23041 ft 432 kts 130°
2026-05-07 19:07 49.29994 9.94525 23047 ft 433 kts 131°
2026-05-07 19:07 49.28143 9.97991 23048 ft 434 kts 131°
2026-05-07 19:08 49.26231 10.01567 23046 ft 434 kts 131°
2026-05-07 19:08 49.24684 10.04458 23057 ft 434 kts 131°
2026-05-07 19:08 49.22792 10.07989 23053 ft 434 kts 131°
2026-05-07 19:08 49.20876 10.11561 23064 ft 434 kts 131°
2026-05-07 19:09 49.18961 10.15124 23081 ft 434 kts 131°
2026-05-07 19:09 49.17041 10.18693 23082 ft 434 kts 131°
2026-05-07 19:09 49.15126 10.22248 22993 ft 431 kts 131°
2026-05-07 19:09 49.13223 10.25759 22251 ft 429 kts 132°
2026-05-07 19:10 49.11236 10.29135 21189 ft 437 kts 135°
2026-05-07 19:10 49.09121 10.32493 20344 ft 438 kts 136°
2026-05-07 19:10 49.06992 10.35801 19654 ft 436 kts 136°
2026-05-07 19:10 49.04877 10.39089 18975 ft 432 kts 136°
2026-05-07 19:11 49.02814 10.42323 18331 ft 429 kts 136°
2026-05-07 19:11 49.00780 10.45539 17635 ft 425 kts 136°
2026-05-07 19:11 48.98746 10.48780 17221 ft 421 kts 135°
2026-05-07 19:11 48.96765 10.51936 17109 ft 422 kts 135°
2026-05-07 19:12 48.94756 10.55131 17097 ft 421 kts 135°
2026-05-07 19:12 48.92771 10.58296 17108 ft 420 kts 135°
2026-05-07 19:12 48.90749 10.61510 17100 ft 420 kts 135°
2026-05-07 19:12 48.88728 10.64717 17103 ft 421 kts 135°
2026-05-07 19:13 48.86728 10.67886 17104 ft 421 kts 135°
2026-05-07 19:13 48.84703 10.71092 17101 ft 421 kts 135°
2026-05-07 19:13 48.82690 10.74274 17092 ft 421 kts 135°
2026-05-07 19:13 48.80658 10.77486 17090 ft 421 kts 135°
2026-05-07 19:14 48.78631 10.80687 17080 ft 421 kts 136°
2026-05-07 19:14 48.76724 10.83682 17079 ft 420 kts 136°
2026-05-07 19:14 48.74661 10.86916 17072 ft 404 kts 136°
2026-05-07 19:14 48.72755 10.89904 17075 ft 384 kts 136°
2026-05-07 19:15 48.70949 10.92732 17074 ft 365 kts 136°
2026-05-07 19:15 48.69226 10.95429 17070 ft 347 kts 136°
2026-05-07 19:15 48.67583 10.98003 17069 ft 336 kts 136°
2026-05-07 19:15 48.65961 11.00526 17061 ft 335 kts 137°
2026-05-07 19:16 48.64344 11.03029 16897 ft 329 kts 137°
2026-05-07 19:16 48.62741 11.05509 16355 ft 331 kts 137°
2026-05-07 19:16 48.61105 11.08035 15565 ft 341 kts 137°
2026-05-07 19:16 48.59459 11.10576 14782 ft 350 kts 136°
2026-05-07 19:17 48.57658 11.13044 13963 ft 356 kts 146°
2026-05-07 19:17 48.55622 11.15241 13027 ft 363 kts 148°
2026-05-07 19:17 48.53563 11.17367 12085 ft 372 kts 148°
2026-05-07 19:17 48.51447 11.19622 11398 ft 383 kts 144°
2026-05-07 19:18 48.49440 11.22196 11093 ft 372 kts 141°
2026-05-07 19:18 48.47572 11.24728 11067 ft 351 kts 141°
2026-05-07 19:18 48.45846 11.27072 11080 ft 331 kts 141°
2026-05-07 19:18 48.44259 11.29449 11078 ft 314 kts 133°
2026-05-07 19:19 48.43038 11.32111 11076 ft 308 kts 120°
2026-05-07 19:19 48.42256 11.34996 11077 ft 311 kts 107°
2026-05-07 19:19 48.41902 11.38206 11072 ft 312 kts 93°
2026-05-07 19:19 48.41998 11.41468 11071 ft 313 kts 84°
2026-05-07 19:20 48.42243 11.44496 11069 ft 313 kts 83°
2026-05-07 19:20 48.42518 11.47741 11070 ft 313 kts 83°
2026-05-07 19:20 48.42788 11.51000 11070 ft 313 kts 83°
2026-05-07 19:20 48.43047 11.54199 11072 ft 313 kts 83°
2026-05-07 19:21 48.43308 11.57464 11071 ft 313 kts 83°
2026-05-07 19:21 48.43565 11.60722 11071 ft 313 kts 83°
2026-05-07 19:21 48.43821 11.63979 11076 ft 313 kts 83°
2026-05-07 19:21 48.44066 11.67122 11075 ft 313 kts 83°
2026-05-07 19:22 48.44319 11.70382 11077 ft 313 kts 83°
2026-05-07 19:22 48.44571 11.73632 11072 ft 313 kts 83°
2026-05-07 19:22 48.44822 11.76893 11077 ft 313 kts 83°
2026-05-07 19:22 48.45073 11.80153 11076 ft 313 kts 83°
2026-05-07 19:23 48.45322 11.83408 11075 ft 313 kts 83°
2026-05-07 19:23 48.45567 11.86627 11058 ft 312 kts 83°
2026-05-07 19:23 48.45792 11.89596 10745 ft 307 kts 83°
2026-05-07 19:23 48.46030 11.92738 10293 ft 309 kts 83°
2026-05-07 19:24 48.46272 11.95952 9835 ft 309 kts 83°
2026-05-07 19:24 48.46513 11.99158 9374 ft 308 kts 83°
2026-05-07 19:24 48.46752 12.02351 8962 ft 305 kts 83°
2026-05-07 19:24 48.46987 12.05506 8565 ft 301 kts 83°
2026-05-07 19:25 48.47218 12.08624 8168 ft 298 kts 83°
2026-05-07 19:25 48.47432 12.11516 8005 ft 296 kts 83°
2026-05-07 19:25 48.47658 12.14589 7984 ft 297 kts 83°
2026-05-07 19:25 48.47885 12.17681 7980 ft 297 kts 83°
2026-05-07 19:26 48.48070 12.20733 7978 ft 297 kts 89°
2026-05-07 19:26 48.47683 12.23758 7984 ft 295 kts 115°
2026-05-07 19:26 48.46505 12.26215 7984 ft 289 kts 142°
2026-05-07 19:26 48.44796 12.27678 7758 ft 279 kts 166°
2026-05-07 19:27 48.42906 12.28087 7248 ft 274 kts 188°
2026-05-07 19:27 48.41158 12.27143 6766 ft 267 kts 219°
2026-05-07 19:27 48.40076 12.24948 6281 ft 263 kts 252°
2026-05-07 19:27 48.39731 12.22256 5812 ft 262 kts 265°
2026-05-07 19:28 48.39576 12.19526 5365 ft 262 kts 265°
2026-05-07 19:28 48.39397 12.16814 5053 ft 258 kts 264°
2026-05-07 19:28 48.39202 12.14212 4981 ft 242 kts 263°
2026-05-07 19:28 48.39002 12.11789 5001 ft 225 kts 263°
2026-05-07 19:29 48.38813 12.09575 4997 ft 209 kts 263°
2026-05-07 19:29 48.38633 12.07461 4870 ft 200 kts 263°
2026-05-07 19:29 48.38474 12.05402 4635 ft 197 kts 264°
2026-05-07 19:29 48.38323 12.03365 4316 ft 195 kts 264°
2026-05-07 19:30 48.38170 12.01359 4036 ft 194 kts 264°
2026-05-07 19:30 48.38015 11.99361 3776 ft 191 kts 264°
2026-05-07 19:30 48.37865 11.97408 3515 ft 184 kts 264°
2026-05-07 19:30 48.37721 11.95548 3307 ft 176 kts 264°
2026-05-07 19:31 48.37584 11.93756 3050 ft 168 kts 264°
2026-05-07 19:31 48.37452 11.92075 2796 ft 158 kts 264°
2026-05-07 19:31 48.37327 11.90507 2615 ft 146 kts 265°
2026-05-07 19:31 48.37217 11.89009 2430 ft 144 kts 265°
2026-05-07 19:32 48.37100 11.87548 2178 ft 136 kts 264°
2026-05-07 19:32 48.36994 11.86148 2038 ft 137 kts 265°
2026-05-07 19:32 48.36883 11.84705 1849 ft 140 kts 264°
2026-05-07 19:32 48.36772 11.83262 1677 ft 138 kts 265°
2026-05-07 19:33 48.36661 11.81830 1512 ft 137 kts 264°
2026-05-07 19:33 48.36570 11.80596 1482 ft 81 kts 264°
2026-05-07 19:33 48.36511 11.79935 1480 ft 38 kts 253°
2026-05-07 19:33 48.36389 11.79583 1476 ft 39 kts 234°
2026-05-07 19:34 48.36265 11.79343 1476 ft 20 kts 219°
2026-05-07 19:34 48.36177 11.79304 1483 ft 0 kts 169°
2026-05-07 19:34 48.36174 11.79305 1483 ft 3 kts 169°
2026-05-07 19:34 48.36104 11.79322 1485 ft 17 kts 174°
2026-05-07 19:35 48.35975 11.79340 1481 ft 20 kts 170°
2026-05-07 19:35 48.35832 11.79387 1477 ft 22 kts 172°
2026-05-07 19:35 48.35672 11.79417 1485 ft 24 kts 173°
2026-05-07 19:35 48.35548 11.79437 1480 ft 0 kts 173°
2026-05-07 19:36 48.35525 11.79440 1484 ft 8 kts 182°
2026-05-07 19:36 48.35502 11.79402 1476 ft 5 kts 252°
2026-05-07 19:36 48.35493 11.79330 1483 ft 6 kts 262°
2026-05-07 19:36 48.35493 11.79323 1483 ft 3 kts 262°
2026-05-07 19:37 48.35490 11.79297 1481 ft 0 kts 262°